DELTA 1 R/B(1)

Satellite information

Favourite Embed

Satellite Type and Status

ROCKET BODYIN ORBIT

Key statistics

Satellite DELTA 1 R/B(1) at a glance.

Uptime

17348

Days in orbit

Revolutions

≈ 13.5

Per day

Orbit

LEO

Low Earth Orbit

Inclination

28.4

Latest

Satellite identification and parameters

Extended collection of information and parameters for DELTA 1 R/B(1).

Object identification

Identified? True

Debris? False

Object name: DELTA 1 R/B(1)

International designator: 1978-062B

Object number (NORAD): 10954

Object ID (CCSDS): 10954

Country: UNITED STATES OF AMERICA (US)

Current information (Y/N): Y

RCS size: LARGE

Orbital parameters

Period: 106.358 minutes

Inclination: 28.4291 deg

SMA: 7436.034 km

Apoapsis: 1567.901 km

Periapsis: 547.898 km

RAAN: 255.6133 deg

Eccentricy: 0.06858518

Argument of periapsis: 330.5008 deg

Mean anomaly: 25.8461 deg

Mean motion: 13.53912721 rev/day

Mean motion (dot): 0.00001365 rev/day2

B* drag term: 0.00038808308 1/REarth

Two-line elements (TLE)

Creation date: Dec. 14, 2025, 3:07 a.m.

Reference frame: TEME

Reference center: EARTH

Epoch: Dec. 13, 2025, 10:53 a.m. UTC

TLE line 0: 0 DELTA 1 R/B(1)

TLE line 1: 1 10954U 78062B 25347.45409227 .00001365 00000-0 38808-3 0 9991

TLE line 2: 2 10954 28.4291 255.6133 0685852 330.5008 25.8461 13.53912721336254

Live tracking on map

Real-time ground track for satellite DELTA 1 R/B(1).

In-orbit conjunctions

A list of the most updated potential collisions computed for object DELTA 1 R/B(1).

Target Orbit TCA Probability of collision Miss distance Type
THORAD DELTA 1 DEB SSO 2024-12-18 17:03:22 0.0001241057 502.0 (m) DEBRIS
ATLAS 2AS CENTAUR R/B LEO 2024-10-29 16:50:17 0.0006530232 181.0 (m) ROCKET BODY
SL-8 R/B LEO 2024-06-29 15:39:26 0.0001462558 455.0 (m) ROCKET BODY

Associated space launch

Geostationary meteorological satellite

DELTA 1 R/B(1) was lifted into orbit during the mission ‘Delta 2914 | GOES 3’, on board a Delta 2914 space rocket.

The launch took place on June 16, 1978, 10:49 a.m. from Space Launch Complex 17B.

For more information about the launch, click the button.

Launch to space Delta 2914 | GOES 3
Delta 2914 | GOES 3

Agency: N/A

Status: Launch Successful

Launch date: June 16, 1978, 10:49 a.m. UTC

Rocket: Delta 2914

Launch pad: Space Launch Complex 17B

Location: Cape Canaveral SFS, FL, USA

...

Latest news about this satellite

There are no fresh news available about this satellite. Check back as we update our databases every day.


Newsletter sign-up

Weekly statistics, charts and insights to help you stay on top of the space industry.